Flag for U.S.A. Weather past 2 weeks in Chula Vista, California, U.S.A.

Now
90 °F

Sunny.


Feels Like: 92 °F
Forecast: 73 / 88 °F
Wind: No wind

Location: Brown Field Municipal Airport

Current Time: Sep 17, 2014 at 9:31:57 AM

Latest Report: Sep 17, 2014 at 8:53 AM


Visibility: 10 mi

Pressure: 29.73 "Hg

Humidity: 43%

Dew point: 65 °F

Location of Chula VistaLocation

Historic Weather in Chula Vista — Graph

°F

Chula Vista temperature yesterday

Maximum temperature yesterday: 101 °F (at 12:53 PM)
Minimum temperature yesterday: 70 °F (at 3:53 AM)
Average temperature yesterday: 84 °F

Past Weeks' High & Low Weather Summary

 TemperatureHumidityPressure
High101 °F (Sep 16, 12:53 PM)97% (Sep 13, 5:53 AM)29.92 "Hg (Sep 13, 5:53 AM)
Low63 °F (Sep 5, 2:53 AM)30% (Sep 16, 12:53 PM)29.68 "Hg (Sep 16, 3:53 PM)
Average76 °F70%29.80 "Hg
* Reported Sep 2 7:53 AM — Sep 17 7:53 AM, Chula Vista, Weather by CustomWeather, © 2014

Note: Actual official high and low records may vary slightly from our data, if they occured in-between our weather recording intervals... More about our weather records

Advertising

Chula Vista weather history for previous 24 hours

 ConditionsComfort  
Time TempWeatherWind HumidityBarometerVisibility
7:53 AM
Sep 17
87 °FSunny.No wind45%29.73 "Hg10 mi
6:53 AM80 °FClear.No wind60%29.72 "Hg10 mi
5:53 AM82 °FClear.6 mph51%29.70 "Hg10 mi
4:53 AM80 °FClear.No wind58%29.70 "Hg10 mi
3:53 AM82 °FClear.No wind53%29.70 "Hg10 mi
2:53 AM82 °FClear.5 mph53%29.70 "Hg9 mi
1:53 AM83 °FClear.No wind55%29.71 "Hg10 mi
12:53 AM82 °FClear.No wind58%29.72 "Hg10 mi
11:53 PM
Sep 16
80 °FClear.No wind62%29.72 "Hg10 mi
10:53 PM80 °FClear.No wind64%29.73 "Hg10 mi
9:53 PM80 °FClear.3 mph64%29.73 "Hg10 mi
8:53 PM85 °FClear.5 mph53%29.72 "Hg10 mi
7:53 PM87 °FClear.5 mph50%29.70 "Hg10 mi
6:53 PM88 °FSunny.3 mph50%29.69 "Hg10 mi
5:53 PM86 °FSunny.3 mph51%29.70 "Hg10 mi
4:53 PM89 °FSunny.10 mph45%29.68 "Hg10 mi
3:53 PM90 °FSunny.8 mph45%29.68 "Hg10 mi
2:53 PM95 °FScattered clouds.12 mph40%29.68 "Hg10 mi
1:53 PM98 °FScattered clouds.8 mph32%29.70 "Hg10 mi
12:53 PM101 °FSunny.N/A30%29.70 "Hg10 mi
11:53 AM96 °FSunny.7 mph36%29.73 "Hg10 mi
10:53 AM92 °FSunny.6 mph41%29.75 "Hg10 mi
9:53 AM89 °FSunny.6 mph46%29.76 "Hg10 mi
Weather by CustomWeather, © 2014

See weather overviewHow to use our weather pages